Notices

What's New in latest Release from April 7th, 2021:

- Updated Glossary, including Speed of Maximum Gust, and Total Hourly Precipitation

- Updated national and regional climate services offices contacts and prices information

- Addition of station inventory lists for 1981-2010, 1971-2000, and 1961-1990 Normals.

If you haven't already, please take our survey and provide feedback about our website: https://eccc.sondage-survey.ca/f/LanguageSelection.aspx?s=442ca660-fcf1-47c0-95a9-59707d6fd709

Hourly Data Report for November 19, 2019

SAINT JOHN A
NEW BRUNSWICK
Current Station Operator: NAVCAN

45°18'58.000" N
65°53'24.000" W
108.80 m
8104901
71609
YSJ

Download Data

Hourly Data (November 2019)
Hourly Data Report for November 19, 2019
TIME
LST
Temp Definition
°C
Dew Point Definition
°C
Rel Hum Definition
%
Precip. Amount Definition
mm

Wind Dir Definition
10's deg

Wind Spd Definition
km/h
Visibility Definition
km
Stn Press Definition
kPa
Hmdx Definition


Wind Chill Definition


Weather Definition


00:00 1.9 1.2 95   2 41 8.1 98.83     Rain,Fog
01:00 1.8 0.9 94   2 29 8.1 98.75     Rain,Fog
02:00 1.9 1.2 95   3 34 4.8 98.72     Rain,Fog
03:00 2.2 1.5 95   2 24 4.8 98.70     Rain,Fog
04:00 2.4 1.6 94   2 28 4.8 98.68     Rain,Fog
05:00 2.1 1.5 95   36 21 4.8 98.73     Rain,Fog
06:00 1.9 1.4 96   2 23 4.0 98.74     Rain,Fog
07:00 1.9 1.5 97   36 20 3.2 98.84     Rain,Fog
08:00 1.8 1.4 97   36 27 6.4 98.92     Rain,Fog
09:00 1.9 1.4 97   36 24 3.2 99.00     Fog
10:00 2.1 1.6 97   35 19 4.8 99.09     Drizzle,Fog
11:00 2.1 1.6 96   35 21 3.2 99.16     Drizzle,Fog
12:00 2.0 1.4 96   36 19 3.2 99.21     Drizzle,Fog
13:00 2.5 1.8 95   1 20 4.8 99.17     Drizzle,Fog
14:00 2.4 1.3 92   2 18 12.9 99.24     Cloudy
15:00 2.2 1.6 96   1 16 3.2 99.29     Fog
16:00 1.7 1.3 97   36 12 2.4 99.38     Drizzle,Fog
17:00 1.4 1.0 97   36 10 3.2 99.46     Drizzle,Fog
18:00 1.0 0.6 98   34 11 3.2 99.55     Fog
19:00 0.7 0.4 98   35 13 6.4 99.62     Fog
20:00 0.7 0.4 98   36 13 4.8 99.69     Fog
21:00 0.7 0.3 97   2 10 4.8 99.76     Fog
22:00 0.6 0.1 97   1 18 6.4 99.75     Fog
23:00                      

Notes on Data Quality.

Legend

  • E = Estimated
  • M = Missing
  • NA = Not Available*
  • [empty] = Indicates an unobserved value
Date modified: